Time,TemperatureF,DewpointF,PressureIn,WindDirection,WindDirectionDegrees,WindSpeedMPH,WindSpeedGustMPH,Humidity,HourlyPrecipIn,Conditions,Clouds,dailyrainin,SoftwareType,DateUTC
2013-08-16 00:00:00,52.2,50.5,30.15,ESE,112,0.0,0.0,94,0.00,,,0.00,VWS V12.07,2013-08-16 04:00:00,
2013-08-16 00:10:00,51.7,50.0,30.15,ESE,112,0.0,0.0,94,0.00,,,0.00,VWS V12.07,2013-08-16 04:10:00,
2013-08-16 00:20:00,51.4,49.7,30.14,ESE,112,0.0,0.0,94,0.00,,,0.00,VWS V12.07,2013-08-16 04:20:00,
2013-08-16 00:30:00,51.1,49.4,30.14,ESE,112,0.0,0.0,94,0.00,,,0.00,VWS V12.07,2013-08-16 04:30:00,
2013-08-16 00:40:00,50.8,49.4,30.14,ESE,112,0.0,0.0,95,0.00,,,0.00,VWS V12.07,2013-08-16 04:40:00,
2013-08-16 00:50:00,50.5,49.1,30.14,ESE,112,0.0,0.0,95,0.00,,,0.00,VWS V12.07,2013-08-16 04:50:00,
2013-08-16 01:00:00,50.2,48.8,30.14,ESE,112,0.0,0.0,95,0.00,,,0.00,VWS V12.07,2013-08-16 05:00:00,
2013-08-16 01:10:00,50.1,48.7,30.14,ESE,112,0.0,0.0,95,0.00,,,0.00,VWS V12.07,2013-08-16 05:10:00,
2013-08-16 01:20:00,49.9,48.5,30.12,ESE,112,0.0,0.0,95,0.00,,,0.00,VWS V12.07,2013-08-16 05:20:00,
2013-08-16 01:30:00,49.8,48.4,30.12,ESE,112,0.0,0.0,95,0.00,,,0.00,VWS V12.07,2013-08-16 05:30:00,
2013-08-16 01:40:00,49.5,48.1,30.12,ESE,112,0.0,0.0,95,0.00,,,0.00,VWS V12.07,2013-08-16 05:40:00,
2013-08-16 01:50:00,49.4,48.3,30.12,ESE,112,0.0,0.0,96,0.00,,,0.00,VWS V12.07,2013-08-16 05:50:00,
2013-08-16 02:00:00,49.2,48.1,30.12,ESE,112,0.0,0.0,96,0.00,,,0.00,VWS V12.07,2013-08-16 06:00:00,
2013-08-16 02:10:00,49.1,48.0,30.12,ESE,112,0.0,0.0,96,0.00,,,0.00,VWS V12.07,2013-08-16 06:10:00,
2013-08-16 02:20:00,49.2,48.1,30.12,ESE,112,0.0,0.0,96,0.00,,,0.00,VWS V12.07,2013-08-16 06:20:00,
2013-08-16 02:30:00,49.4,48.3,30.10,ESE,112,0.0,0.0,96,0.00,,,0.00,VWS V12.07,2013-08-16 06:30:00,
2013-08-16 02:40:00,49.5,48.4,30.10,ESE,112,0.0,0.0,96,0.00,,,0.00,VWS V12.07,2013-08-16 06:40:00,
2013-08-16 02:50:00,49.6,48.8,30.10,ESE,112,0.0,0.0,97,0.00,,,0.00,VWS V12.07,2013-08-16 06:50:00,
2013-08-16 03:00:00,49.9,49.1,30.10,ESE,112,0.0,0.0,97,0.00,,,0.00,VWS V12.07,2013-08-16 07:00:00,
2013-08-16 03:10:00,50.1,49.3,30.10,ESE,112,0.0,0.0,97,0.00,,,0.00,VWS V12.07,2013-08-16 07:10:00,
2013-08-16 03:20:00,50.2,49.4,30.10,ESE,112,0.0,0.0,97,0.00,,,0.00,VWS V12.07,2013-08-16 07:20:00,
2013-08-16 03:30:00,50.1,49.3,30.10,ESE,112,0.0,0.0,97,0.00,,,0.00,VWS V12.07,2013-08-16 07:30:00,
2013-08-16 03:40:00,49.8,49.0,30.10,ESE,112,0.0,0.0,97,0.00,,,0.00,VWS V12.07,2013-08-16 07:40:00,
2013-08-16 03:50:00,49.5,48.7,30.08,ESE,112,0.0,0.0,97,0.00,,,0.00,VWS V12.07,2013-08-16 07:50:00,
2013-08-16 04:00:00,49.2,48.4,30.08,ESE,112,0.0,0.0,97,0.00,,,0.00,VWS V12.07,2013-08-16 08:00:00,
2013-08-16 04:10:00,49.1,48.3,30.08,ESE,112,0.0,0.0,97,0.00,,,0.00,VWS V12.07,2013-08-16 08:10:00,
2013-08-16 04:20:00,48.9,48.1,30.09,ESE,112,0.0,0.0,97,0.00,,,0.00,VWS V12.07,2013-08-16 08:20:00,
2013-08-16 04:30:00,48.6,47.8,30.09,ESE,112,0.0,0.0,97,0.00,,,0.00,VWS V12.07,2013-08-16 08:30:00,
2013-08-16 04:40:00,48.5,47.7,30.09,ESE,112,0.0,0.0,97,0.00,,,0.00,VWS V12.07,2013-08-16 08:40:00,
2013-08-16 04:50:00,48.3,47.5,30.09,ESE,112,0.0,0.0,97,0.00,,,0.00,VWS V12.07,2013-08-16 08:50:00,
2013-08-16 05:00:00,48.0,47.2,30.09,ESE,112,0.0,0.0,97,0.00,,,0.00,VWS V12.07,2013-08-16 09:00:00,
2013-08-16 05:10:00,47.9,47.1,30.09,ESE,112,0.0,0.0,97,0.00,,,0.00,VWS V12.07,2013-08-16 09:10:00,
2013-08-16 05:20:00,47.9,47.4,30.10,ESE,112,0.0,0.0,98,0.00,,,0.00,VWS V12.07,2013-08-16 09:20:00,
2013-08-16 05:30:00,48.0,47.5,30.11,ESE,112,0.0,0.0,98,0.00,,,0.00,VWS V12.07,2013-08-16 09:30:00,
2013-08-16 05:40:00,48.0,47.5,30.11,ESE,112,0.0,0.0,98,0.00,,,0.00,VWS V12.07,2013-08-16 09:40:00,
2013-08-16 05:50:00,48.2,47.7,30.11,ESE,112,0.0,0.0,98,0.00,,,0.00,VWS V12.07,2013-08-16 09:50:00,
2013-08-16 06:00:00,48.3,47.8,30.11,ESE,112,0.0,0.0,98,0.00,,,0.00,VWS V12.07,2013-08-16 10:00:00,
2013-08-16 06:10:00,48.3,47.8,30.11,ESE,112,0.0,0.0,98,0.00,,,0.00,VWS V12.07,2013-08-16 10:10:00,
2013-08-16 06:20:00,48.5,48.0,30.11,ESE,112,0.0,0.0,98,0.00,,,0.00,VWS V12.07,2013-08-16 10:20:00,
2013-08-16 06:30:00,48.5,48.0,30.11,ESE,112,0.0,0.0,98,0.00,,,0.00,VWS V12.07,2013-08-16 10:30:00,
2013-08-16 06:40:00,48.5,48.0,30.11,ESE,112,0.0,0.0,98,0.00,,,0.00,VWS V12.07,2013-08-16 10:40:00,
2013-08-16 06:50:00,48.5,48.0,30.12,ESE,112,0.0,0.0,98,0.00,,,0.00,VWS V12.07,2013-08-16 10:50:00,
2013-08-16 07:00:00,48.6,48.1,30.12,ESE,112,0.0,0.0,98,0.00,,,0.00,VWS V12.07,2013-08-16 11:00:00,
2013-08-16 07:10:00,48.6,48.1,30.12,ESE,112,0.0,0.0,98,0.00,,,0.00,VWS V12.07,2013-08-16 11:10:00,
2013-08-16 07:20:00,48.9,48.4,30.13,ESE,112,0.0,0.0,98,0.00,,,0.00,VWS V12.07,2013-08-16 11:20:00,
2013-08-16 07:30:00,49.2,48.7,30.14,ESE,112,0.0,0.0,98,0.00,,,0.00,VWS V12.07,2013-08-16 11:30:00,
2013-08-16 07:40:00,49.6,49.1,30.14,ESE,112,0.0,0.0,98,0.00,,,0.00,VWS V12.07,2013-08-16 11:40:00,
2013-08-16 07:50:00,50.1,49.8,30.13,ESE,112,0.0,0.0,99,0.00,,,0.00,VWS V12.07,2013-08-16 11:50:00,
2013-08-16 08:00:00,50.4,50.1,30.14,ESE,112,0.0,0.0,99,0.00,,,0.00,VWS V12.07,2013-08-16 12:00:00,
2013-08-16 08:10:00,50.8,50.5,30.14,ESE,112,0.0,0.0,99,0.00,,,0.00,VWS V12.07,2013-08-16 12:10:00,
2013-08-16 08:20:00,51.3,51.0,30.13,ESE,112,0.0,1.0,99,0.00,,,0.00,VWS V12.07,2013-08-16 12:20:00,
2013-08-16 08:30:00,51.7,51.4,30.12,ESE,112,0.0,0.0,99,0.00,,,0.00,VWS V12.07,2013-08-16 12:30:00,
2013-08-16 08:40:00,52.6,52.3,30.12,ESE,112,0.0,0.0,99,0.00,,,0.00,VWS V12.07,2013-08-16 12:40:00,
2013-08-16 08:50:00,53.6,53.3,30.12,ESE,112,0.0,0.0,99,0.00,,,0.00,VWS V12.07,2013-08-16 12:50:00,
2013-08-16 09:00:00,54.1,53.8,30.12,ESE,112,0.0,0.0,99,0.00,,,0.00,VWS V12.07,2013-08-16 13:00:00,
2013-08-16 09:10:00,54.7,54.2,30.12,ESE,112,1.0,5.0,98,0.00,,,0.00,VWS V12.07,2013-08-16 13:10:00,
2013-08-16 09:20:00,56.0,54.6,30.11,NNE,22,0.0,2.0,95,0.00,,,0.00,VWS V12.07,2013-08-16 13:20:00,
2013-08-16 09:30:00,56.0,51.6,30.11,ENE,68,3.0,9.0,85,0.00,,,0.00,VWS V12.07,2013-08-16 13:30:00,
2013-08-16 09:40:00,56.5,51.7,30.11,ENE,68,2.0,9.0,84,0.00,,,0.00,VWS V12.07,2013-08-16 13:40:00,
2013-08-16 09:50:00,57.0,51.2,30.12,ENE,68,1.0,4.0,81,0.00,,,0.00,VWS V12.07,2013-08-16 13:50:00,
2013-08-16 10:00:00,57.3,50.8,30.12,SE,135,1.0,10.0,79,0.00,,,0.00,VWS V12.07,2013-08-16 14:00:00,
2013-08-16 10:10:00,57.3,50.5,30.12,East,90,2.0,6.0,78,0.00,,,0.00,VWS V12.07,2013-08-16 14:10:00,
2013-08-16 10:20:00,57.8,51.0,30.13,ENE,68,1.0,4.0,78,0.00,,,0.00,VWS V12.07,2013-08-16 14:20:00,
2013-08-16 10:30:00,58.1,50.9,30.13,ENE,68,1.0,4.0,77,0.00,,,0.00,VWS V12.07,2013-08-16 14:30:00,
2013-08-16 10:40:00,57.5,49.3,30.13,ENE,68,3.0,11.0,74,0.00,,,0.00,VWS V12.07,2013-08-16 14:40:00,
2013-08-16 10:50:00,57.0,49.5,30.15,ENE,68,5.0,10.0,76,0.00,,,0.00,VWS V12.07,2013-08-16 14:50:00,
2013-08-16 11:00:00,57.3,49.1,30.15,East,90,3.0,9.0,74,0.00,,,0.00,VWS V12.07,2013-08-16 15:00:00,
2013-08-16 11:29:00,58.1,50.6,30.15,East,86,6.0,9.0,76,3.48,,,0.00,VWS V12.07,2013-08-16 15:29:00,
2013-08-16 11:40:00,58.1,49.1,30.15,ENE,74,0.0,6.0,72,3.48,,,0.00,VWS V12.07,2013-08-16 15:40:00,
2013-08-16 11:57:00,58.9,49.9,30.13,East,88,3.0,5.0,72,3.48,,,0.00,VWS V12.07,2013-08-16 15:57:00,
2013-08-16 12:10:00,58.7,48.6,30.13,NE,34,8.0,9.0,69,3.48,,,0.00,VWS V12.07,2013-08-16 16:10:00,
2013-08-16 12:27:00,59.8,48.4,30.14,East,79,4.0,9.0,66,3.48,,,0.00,VWS V12.07,2013-08-16 16:27:00,
2013-08-16 12:40:00,62.1,50.2,30.13,ENE,78,4.0,9.0,65,0.00,,,0.00,VWS V12.07,2013-08-16 16:40:00,
2013-08-16 12:57:00,62.1,49.8,30.13,ESE,114,6.0,7.0,64,0.00,,,0.00,VWS V12.07,2013-08-16 16:57:00,
2013-08-16 13:10:00,61.6,49.7,30.13,ESE,103,1.0,12.0,65,0.00,,,0.00,VWS V12.07,2013-08-16 17:10:00,
2013-08-16 13:27:00,62.1,50.6,30.13,ENE,78,3.0,10.0,66,0.00,,,0.00,VWS V12.07,2013-08-16 17:27:00,
2013-08-16 13:40:00,63.2,51.7,30.13,SSE,155,5.0,10.0,66,0.00,,,0.00,VWS V12.07,2013-08-16 17:40:00,
2013-08-16 13:57:00,63.7,51.7,30.12,SE,142,1.0,9.0,65,0.00,,,0.00,VWS V12.07,2013-08-16 17:57:00,
2013-08-16 14:10:00,64.8,52.3,30.10,East,81,3.0,9.0,64,0.00,,,0.00,VWS V12.07,2013-08-16 18:10:00,
2013-08-16 14:27:00,63.9,51.1,30.10,ENE,71,8.0,11.0,63,0.00,,,0.00,VWS V12.07,2013-08-16 18:27:00,
2013-08-16 14:40:00,64.0,51.2,30.10,NNE,33,3.0,9.0,63,0.00,,,0.00,VWS V12.07,2013-08-16 18:40:00,
2013-08-16 14:57:00,65.0,53.8,30.10,ENE,76,5.0,10.0,67,0.00,,,0.00,VWS V12.07,2013-08-16 18:57:00,
2013-08-16 15:10:00,66.0,53.1,30.09,SE,130,1.0,12.0,63,0.00,,,0.00,VWS V12.07,2013-08-16 19:10:00,
2013-08-16 15:27:00,66.1,54.4,30.09,SSE,150,3.0,11.0,66,0.00,,,0.00,VWS V12.07,2013-08-16 19:27:00,
2013-08-16 15:40:00,66.1,54.0,30.08,East,87,1.0,11.0,65,0.00,,,0.00,VWS V12.07,2013-08-16 19:40:00,
2013-08-16 15:57:00,66.1,53.6,30.08,NE,40,1.0,9.0,64,0.00,,,0.00,VWS V12.07,2013-08-16 19:57:00,
2013-08-16 16:10:00,65.8,54.1,30.08,East,88,1.0,13.0,66,0.00,,,0.00,VWS V12.07,2013-08-16 20:10:00,
2013-08-16 16:27:00,66.1,53.6,30.08,ESE,113,1.0,9.0,64,0.00,,,0.00,VWS V12.07,2013-08-16 20:27:00,
2013-08-16 16:40:00,66.3,53.8,30.08,East,87,11.0,11.0,64,0.00,,,0.00,VWS V12.07,2013-08-16 20:40:00,
2013-08-16 16:57:00,65.6,54.4,30.08,SE,140,9.0,11.0,67,0.00,,,0.00,VWS V12.07,2013-08-16 20:57:00,
2013-08-16 17:10:00,66.1,54.4,30.08,ENE,59,5.0,10.0,66,0.00,,,0.00,VWS V12.07,2013-08-16 21:10:00,
2013-08-16 17:27:00,65.5,54.7,30.08,ENE,77,5.0,12.0,68,0.00,,,0.00,VWS V12.07,2013-08-16 21:27:00,
2013-08-16 17:40:00,65.2,54.8,30.08,ESE,117,4.0,11.0,69,0.00,,,0.00,VWS V12.07,2013-08-16 21:40:00,
2013-08-16 17:57:00,64.8,55.2,30.09,ESE,119,2.0,11.0,71,0.00,,,0.00,VWS V12.07,2013-08-16 21:57:00,
2013-08-16 18:10:00,64.7,55.5,30.09,ENE,65,5.0,12.0,72,0.00,,,0.00,VWS V12.07,2013-08-16 22:10:00,
2013-08-16 18:27:00,64.0,54.8,30.09,SE,139,8.0,11.0,72,0.00,,,0.00,VWS V12.07,2013-08-16 22:27:00,
2013-08-16 18:40:00,63.4,55.3,30.09,ESE,116,5.0,10.0,75,0.00,,,0.00,VWS V12.07,2013-08-16 22:40:00,
2013-08-16 18:57:00,62.9,55.2,30.09,East,97,4.0,5.0,76,0.00,,,0.00,VWS V12.07,2013-08-16 22:57:00,
2013-08-16 19:10:00,62.4,55.8,30.09,SE,142,0.0,6.0,79,0.00,,,0.00,VWS V12.07,2013-08-16 23:10:00,
2013-08-16 19:27:00,62.0,55.4,30.09,NE,49,2.0,6.0,79,0.00,,,0.00,VWS V12.07,2013-08-16 23:27:00,
2013-08-16 19:40:00,61.3,55.4,30.09,ENE,62,0.0,4.0,81,0.00,,,0.00,VWS V12.07,2013-08-16 23:40:00,
2013-08-16 19:57:00,61.2,55.7,30.11,East,82,0.0,5.0,82,0.00,,,0.00,VWS V12.07,2013-08-16 23:57:00,
2013-08-16 20:10:00,60.5,55.3,30.12,East,86,0.0,4.0,83,0.00,,,0.00,VWS V12.07,2013-08-17 00:10:00,
2013-08-16 20:27:00,60.2,55.3,30.11,SE,127,0.0,4.0,84,0.00,,,0.00,VWS V12.07,2013-08-17 00:27:00,
2013-08-16 20:40:00,59.6,55.4,30.11,ENE,59,0.0,4.0,86,0.00,,,0.00,VWS V12.07,2013-08-17 00:40:00,
2013-08-16 20:57:00,59.2,55.3,30.12,ENE,63,0.0,3.0,87,0.00,,,0.00,VWS V12.07,2013-08-17 00:57:00,
2013-08-16 21:10:00,58.4,54.9,30.13,ENE,63,0.0,2.0,88,0.00,,,0.00,VWS V12.07,2013-08-17 01:10:00,
2013-08-16 21:27:00,58.4,55.2,30.13,ENE,63,0.0,0.0,89,0.00,,,0.00,VWS V12.07,2013-08-17 01:27:00,
2013-08-16 21:40:00,58.0,55.1,30.13,ENE,63,0.0,1.0,90,0.00,,,0.00,VWS V12.07,2013-08-17 01:40:00,
2013-08-16 21:57:00,58.0,55.1,30.14,ENE,64,0.0,3.0,90,0.00,,,0.00,VWS V12.07,2013-08-17 01:57:00,
2013-08-16 22:10:00,58.0,55.4,30.14,ENE,65,2.0,4.0,91,0.00,,,0.00,VWS V12.07,2013-08-17 02:10:00,
2013-08-16 22:27:00,58.1,55.2,30.15,ENE,65,0.0,3.0,90,0.00,,,0.00,VWS V12.07,2013-08-17 02:27:00,
2013-08-16 22:40:00,58.1,55.2,30.14,SE,139,0.0,7.0,90,0.00,,,0.00,VWS V12.07,2013-08-17 02:40:00,
2013-08-16 22:57:00,58.1,55.2,30.14,ENE,60,0.0,5.0,90,0.00,,,0.00,VWS V12.07,2013-08-17 02:57:00,
2013-08-16 23:10:00,58.0,55.1,30.15,NE,48,3.0,6.0,90,0.00,,,0.00,VWS V12.07,2013-08-17 03:10:00,
2013-08-16 23:27:00,57.8,54.9,30.15,ENE,69,3.0,6.0,90,0.00,,,0.00,VWS V12.07,2013-08-17 03:27:00,
2013-08-16 23:40:00,57.8,54.6,30.14,NE,54,0.0,3.0,89,0.00,,,0.00,VWS V12.07,2013-08-17 03:40:00,
2013-08-16 23:57:00,57.6,54.7,30.14,ENE,69,7.0,9.0,90,0.00,,,0.00,VWS V12.07,2013-08-17 03:57:00,